Time[GMT],current_speed[cm/s](2m),current_direction[angular_degrees](2m),temperature[C](2m),current_u[cm/s](2m),current_v[cm/s](2m)
2006-09-16 21:00,75.96,332.4,16.61,-35.20,67.32
2006-09-16 22:00,58.95,347.1,18.29,-13.14,57.47
2006-09-16 23:00,39.30,10.7,17.27,7.28,38.62
2006-09-17 00:00,46.93,60.6,17.24,40.89,23.03
2006-09-17 01:00,61.30,92.3,17.05,61.25,-2.41
2006-09-17 02:00,83.00,98.6,17.15,82.08,-12.38
2006-09-17 03:00,78.90,112.6,16.77,72.82,-30.38
2006-09-17 04:00,57.19,145.0,15.82,32.81,-46.84
2006-09-17 05:00,49.86,155.9,16.14,20.37,-45.51
2006-09-17 06:00,32.85,194.6,15.95,-8.26,-31.79
2006-09-17 07:00,27.57,231.5,15.76,-21.57,-17.17
2006-09-17 08:00,46.93,264.9,15.38,-46.74,-4.18
2006-09-17 09:00,73.91,308.8,15.48,-57.57,46.35
2006-09-17 10:00,61.30,320.8,16.58,-38.75,47.50
2006-09-17 11:00,35.78,329.6,17.12,-18.12,30.86
2006-09-17 12:00,16.72,14.5,16.99,4.20,16.18
2006-09-17 13:00,30.80,72.6,17.12,29.38,9.23
2006-09-17 14:00,49.86,81.7,17.81,49.34,7.20
2006-09-17 15:00,72.15,88.4,17.87,72.12,2.04
2006-09-17 16:00,62.47,114.4,17.24,56.89,-25.81
2006-09-17 17:00,38.13,121.4,15.95,32.53,-19.88
2006-09-17 18:00,32.56,167.5,15.86,7.05,-31.78
2006-09-17 19:00,24.34,211.1,15.54,-12.57,-20.85
2006-09-17 20:00,51.91,254.3,15.67,-49.99,-14.01
2006-09-17 21:00,60.13,280.4,16.64,-59.15,10.81
2006-09-17 22:00,61.30,306.0,19.40,-49.58,36.05
2006-09-17 23:00,44.29,327.1,18.48,-24.04,37.19
2006-09-18 00:00,19.36,26.9,18.51,8.74,17.27
2006-09-18 01:00,23.17,123.9,18.19,19.23,-12.92
2006-09-18 03:00,54.85,93.3,18.16,54.76,-3.16
2006-09-18 04:00,49.57,98.2,17.84,49.06,-7.09
2006-09-18 05:00,44.29,106.3,17.59,42.50,-12.44
2006-09-18 06:00,25.81,96.1,17.43,25.66,-2.75
2006-09-18 07:00,6.75,152.4,17.49,3.13,-5.98
2006-09-18 08:00,20.53,285.3,17.40,-19.81,5.41
2006-09-18 09:00,46.05,296.2,17.59,-41.32,20.32
2006-09-18 10:00,59.83,310.2,17.81,-45.67,38.65
2006-09-18 11:00,61.30,329.6,17.84,-31.04,52.86
2006-09-18 12:00,51.62,345.0,17.40,-13.35,49.86
2006-09-18 13:00,12.03,18.4,17.24,3.80,11.41
2006-09-18 14:00,50.45,63.8,17.34,45.25,22.30
2006-09-18 15:00,40.77,78.5,17.37,39.96,8.10
2006-09-18 16:00,68.63,95.1,17.31,68.36,-6.06
2006-09-18 17:00,56.90,119.7,17.62,49.44,-28.17
2006-09-18 18:00,44.58,128.5,17.84,34.91,-27.73
2006-09-18 19:00,37.54,142.2,17.78,23.02,-29.66
2006-09-18 20:00,34.02,202.3,17.75,-12.91,-31.48
2006-09-18 21:00,49.86,246.3,17.78,-45.64,-20.08
2006-09-18 22:00,69.51,286.3,18.03,-66.71,19.55
2006-09-18 23:00,62.47,301.1,17.87,-53.49,32.27
2006-09-19 00:00,40.48,312.7,17.59,-29.74,27.45
2006-09-19 01:00,13.20,334.5,17.40,-5.68,11.91
2006-09-19 02:00,7.33,110.9,17.37,6.85,-2.61
2006-09-19 03:00,39.89,53.9,17.40,32.24,23.49
2006-09-19 04:00,51.62,78.9,17.37,50.65,9.95
2006-09-19 05:00,75.08,104.6,16.99,72.67,-18.87
2006-09-19 06:00,57.49,117.2,16.42,51.12,-26.29
2006-09-19 07:00,46.05,127.8,16.42,36.40,-28.20
2006-09-19 08:00,34.32,175.9,16.67,2.43,-34.23
2006-09-19 09:00,35.49,230.4,16.58,-27.36,-22.61
2006-09-19 10:00,75.67,299.3,17.37,-65.96,37.08
2006-09-19 11:00,85.35,316.9,17.56,-58.29,62.34
2006-09-19 12:00,56.90,336.3,17.65,-22.91,52.09
2006-09-19 13:00,26.69,343.6,17.65,-7.53,25.61
2006-09-19 14:00,9.39,39.2,17.65,5.93,7.28
2006-09-19 15:00,30.50,61.3,17.75,26.76,14.64
2006-09-19 16:00,51.91,74.3,17.84,49.98,14.03
2006-09-19 17:00,71.57,94.0,17.40,71.39,-5.00
2006-09-19 18:00,74.20,98.9,16.99,73.31,-11.52
2006-09-19 19:00,41.65,123.2,16.42,34.85,-22.80
2006-09-19 20:00,25.81,173.8,16.67,2.78,-25.66
2006-09-19 21:00,34.32,235.4,16.89,-28.23,-19.51
2006-09-19 22:00,66.58,274.0,17.18,-66.41,4.68
2006-09-19 23:00,73.62,295.1,17.75,-66.65,31.26
2006-09-20 00:00,61.30,324.3,18.06,-35.76,49.78
2006-09-20 01:00,44.29,350.3,18.51,-7.47,43.65
2006-09-20 02:00,26.98,76.1,18.29,26.19,6.49
2006-09-20 03:00,31.68,132.3,18.06,23.42,-21.33
2006-09-20 04:00,29.04,111.9,17.97,26.93,-10.85
2006-09-20 05:00,57.49,101.0,17.84,56.42,-11.01
2006-09-20 06:00,70.39,92.3,18.06,70.34,-2.76
2006-09-20 07:00,58.37,103.2,17.53,56.84,-13.28
2006-09-20 08:00,32.56,110.9,16.71,30.42,-11.61
2006-09-20 09:00,22.00,157.3,17.02,8.49,-20.29
2006-09-20 10:00,24.34,268.1,16.96,-24.33,-0.83
2006-09-20 11:00,56.61,294.4,17.84,-51.54,23.40
2006-09-20 13:00,43.12,352.4,17.65,-5.70,42.74
2006-09-20 14:00,26.98,20.5,17.53,9.46,25.27
2006-09-20 15:00,24.05,70.8,17.56,22.71,7.91
2006-09-20 16:00,51.62,79.6,17.34,50.77,9.32
2006-09-20 17:00,69.51,94.7,17.08,69.28,-5.71
2006-09-20 18:00,85.64,115.8,17.59,77.10,-37.29
2006-09-20 21:00,30.80,180.9,16.77,-0.46,-30.79
2006-09-20 22:00,40.18,223.7,17.43,-27.79,-29.03
2006-09-20 23:00,70.69,278.6,17.46,-69.89,10.57
2006-09-21 00:00,64.82,299.0,17.59,-56.70,31.42
2006-09-21 01:00,,,,,
2006-09-21 02:00,24.05,62.7,17.02,21.37,11.02
2006-09-21 03:00,21.70,110.5,17.05,20.33,-7.61
2006-09-21 04:00,37.84,128.1,17.05,29.77,-23.35
2006-09-21 05:00,48.98,131.3,17.08,36.81,-32.31
2006-09-21 06:00,56.61,119.7,16.80,49.18,-28.03
2006-09-21 07:00,45.17,128.5,16.80,35.37,-28.10
2006-09-21 08:00,17.89,152.7,16.83,8.20,-15.90
2006-09-21 09:00,10.56,200.5,16.96,-3.71,-9.89
2006-09-21 10:00,25.52,268.8,17.02,-25.51,-0.55
2006-09-21 11:00,73.32,298.6,17.24,-64.35,35.15
2006-09-21 12:00,67.75,313.8,17.27,-48.93,46.86
2006-09-21 13:00,72.45,332.0,16.71,-33.96,63.99
2006-09-21 14:00,46.34,349.2,16.77,-8.66,45.53
2006-09-21 15:00,26.69,46.9,16.89,19.49,18.24
2006-09-21 16:00,37.54,70.8,16.89,35.45,12.34
2006-09-21 17:00,60.13,89.1,16.74,60.12,0.96
2006-09-21 18:00,87.11,109.1,16.42,82.30,-28.54
2006-09-21 19:00,78.60,125.3,16.45,64.15,-45.42
2006-09-21 20:00,62.47,150.6,16.86,30.65,-54.44
2006-09-21 21:00,51.91,166.8,16.74,11.86,-50.54
2006-09-21 22:00,45.46,220.9,16.45,-29.79,-34.34
2006-09-21 23:00,75.96,256.4,16.86,-73.85,-17.80
2006-09-22 00:00,83.00,280.4,17.02,-81.65,14.92
2006-09-22 01:00,75.38,300.7,16.93,-64.78,38.54
2006-09-22 02:00,63.94,326.4,16.96,-35.37,53.27
2006-09-22 03:00,26.69,340.1,17.08,-9.07,25.10
2006-09-22 04:00,17.30,42.0,17.24,11.57,12.87
2006-09-22 05:00,26.69,56.0,17.18,22.14,14.91
2006-09-22 06:00,56.02,100.7,17.31,55.05,-10.39
2006-09-22 07:00,89.16,95.4,17.43,88.77,-8.41
2006-09-22 08:00,65.11,112.3,16.89,60.25,-24.70
2006-09-22 09:00,45.46,125.3,16.45,37.10,-26.27
2006-09-22 10:00,15.25,145.0,16.26,8.75,-12.49
2006-09-22 11:00,16.42,228.0,16.23,-12.20,-11.00
2006-09-22 12:00,57.78,282.8,16.42,-56.34,12.82
2006-09-22 13:00,65.11,306.7,16.96,-52.19,38.94
2006-09-22 14:00,37.84,320.4,17.27,-24.10,29.17
2006-09-22 15:00,22.58,23.3,17.49,8.95,20.74
2006-09-22 16:00,33.14,73.6,17.49,31.80,9.35
2006-09-22 17:00,34.32,82.1,17.62,33.99,4.74
2006-09-22 18:00,46.93,105.3,17.62,45.27,-12.35
2006-09-22 19:00,75.96,110.2,17.46,71.30,-26.21
2006-09-22 20:00,72.15,121.4,17.21,61.56,-37.63
2006-09-22 21:00,55.43,138.7,16.52,36.61,-41.62
2006-09-22 22:00,32.85,141.1,16.42,20.62,-25.57
2006-09-22 23:00,24.93,222.7,16.36,-16.91,-18.32
2006-09-23 00:00,55.14,272.6,16.67,-55.08,2.52
2006-09-23 01:00,68.34,299.0,17.15,-59.78,33.12
2006-09-23 02:00,54.55,321.5,17.46,-33.97,42.69
2006-09-23 03:00,24.93,322.2,17.27,-15.28,19.70
2006-09-23 04:00,10.85,358.0,17.31,-0.37,10.85
2006-09-23 05:00,29.92,66.6,17.59,27.45,11.89
2006-09-23 06:00,39.30,107.7,17.59,37.44,-11.96
2006-09-23 07:00,52.50,99.3,17.62,51.81,-8.47
2006-09-23 08:00,68.93,109.8,17.78,64.84,-23.38
2006-09-23 09:00,53.97,127.8,17.78,42.66,-33.05
2006-09-23 10:00,30.50,115.8,18.00,27.46,-13.28
2006-09-23 11:00,14.66,161.5,17.84,4.65,-13.91
2006-09-23 12:00,30.50,277.2,17.97,-30.26,3.82
2006-09-23 13:00,54.55,304.6,17.78,-44.90,30.99
2006-09-23 16:00,13.79,342.9,17.59,-4.05,13.18
2006-09-23 17:00,23.17,45.1,17.91,16.42,16.35
2006-09-23 18:00,39.01,82.4,17.94,38.67,5.16
2006-09-23 19:00,57.49,79.6,17.97,56.54,10.38
2006-09-23 20:00,71.57,75.0,18.10,69.13,18.50
2006-09-23 21:00,48.10,82.1,18.06,47.64,6.65
2006-09-23 22:00,37.25,90.8,18.03,37.25,-0.55
2006-09-23 23:00,6.45,44.1,18.03,4.49,4.64
2006-09-24 00:00,9.39,288.1,18.00,-8.92,2.91
2006-09-24 01:00,48.10,312.4,18.00,-35.55,32.41
2006-09-24 02:00,40.18,315.5,17.94,-28.16,28.67
2006-09-24 03:00,31.97,330.6,17.94,-15.68,27.86
2006-09-24 04:00,21.12,3.6,17.97,1.34,21.07
2006-09-24 05:00,24.93,77.1,17.97,24.30,5.55
2006-09-24 06:00,37.25,97.5,17.97,36.93,-4.88
2006-09-24 07:00,50.15,110.2,17.94,47.07,-17.30
2006-09-24 08:00,52.21,99.6,18.03,51.47,-8.74
2006-09-24 09:00,40.48,107.7,18.03,38.55,-12.32
2006-09-24 10:00,20.82,120.7,18.03,17.90,-10.64
2006-09-24 11:00,4.69,271.2,18.00,-4.69,0.10
2006-09-24 12:00,33.14,301.5,18.00,-28.27,17.29
2006-09-24 13:00,64.53,296.9,17.91,-57.55,29.18
2006-09-24 14:00,75.08,311.3,17.53,-56.41,49.55
2006-09-24 15:00,49.27,338.7,17.91,-17.88,45.92
2006-09-24 16:00,36.37,19.5,17.97,12.12,34.29
2006-09-24 17:00,41.94,56.7,18.06,35.07,23.00
2006-09-24 18:00,51.91,72.9,18.06,49.62,15.25
2006-09-24 19:00,68.05,83.1,18.10,67.55,8.16
2006-09-24 20:00,102.07,103.2,18.10,99.39,-23.22
2006-09-24 21:00,77.72,117.6,18.06,68.90,-35.97
2006-09-24 22:00,52.21,123.9,18.03,43.34,-29.11
2006-09-24 23:00,30.80,113.3,17.94,28.27,-12.20
2006-09-25 00:00,1.76,126.7,17.91,1.41,-1.05
2006-09-25 01:00,24.93,263.8,17.97,-24.79,-2.68
2006-09-25 02:00,34.32,264.5,17.97,-34.16,-3.27
2006-09-25 03:00,31.97,268.8,17.94,-31.96,-0.70
2006-09-25 04:00,13.20,254.0,17.87,-12.69,-3.64
2006-09-25 05:00,17.30,183.7,17.84,-1.11,-17.27
2006-09-25 06:00,31.38,141.5,17.81,19.55,-24.55
2006-09-25 07:00,29.62,123.5,17.78,24.69,-16.37
2006-09-25 08:00,35.78,133.4,17.78,26.00,-24.58
2006-09-25 09:00,42.24,123.9,17.78,35.06,-23.55
2006-09-25 10:00,29.33,125.7,17.81,23.83,-17.10
2006-09-25 11:00,13.49,166.8,17.81,3.08,-13.13
2006-09-25 12:00,16.42,261.0,17.78,-16.22,-2.56
2006-09-25 13:00,36.96,280.4,17.78,-36.35,6.64
2006-09-25 14:00,50.74,296.5,17.31,-45.40,22.66
2006-09-25 15:00,50.15,321.1,17.27,-31.47,39.06
2006-09-25 16:00,35.78,351.7,17.53,-5.17,35.41
2006-09-25 17:00,30.50,35.3,17.72,17.62,24.90
2006-09-25 18:00,35.20,67.3,17.78,32.47,13.59
2006-09-25 19:00,55.73,81.7,17.81,55.14,8.04
2006-09-25 20:00,67.75,98.6,17.84,66.99,-10.11
2006-09-25 21:00,77.72,124.9,17.87,63.71,-44.52
2006-09-25 22:00,65.99,137.6,17.84,44.49,-48.74
2006-09-25 23:00,46.93,161.9,17.84,14.60,-44.60
2006-09-26 00:00,42.53,196.0,17.81,-11.70,-40.89
2006-09-26 01:00,53.09,214.3,17.65,-29.88,-43.88
2006-09-26 02:00,68.63,254.3,16.83,-66.08,-18.53
2006-09-26 03:00,78.60,295.5,17.02,-70.96,33.81
2006-09-26 04:00,55.14,313.8,17.18,-39.83,38.14
2006-09-26 05:00,30.50,354.2,17.08,-3.11,30.34
2006-09-26 06:00,31.97,30.4,17.05,16.16,27.58
2006-09-26 07:00,50.45,57.8,17.24,42.69,26.89
2006-09-26 08:00,75.38,79.6,17.46,74.14,13.62
2006-09-26 09:00,91.51,91.2,17.59,91.49,-1.91
2006-09-26 10:00,87.70,103.2,17.56,85.40,-19.95
2006-09-26 11:00,61.59,107.0,17.37,58.90,-18.03
2006-09-26 12:00,38.42,173.5,16.89,4.37,-38.17
2006-09-26 13:00,45.75,215.7,16.96,-26.68,-37.17
2006-09-26 14:00,51.03,258.2,16.89,-49.96,-10.43
2006-09-26 15:00,45.75,285.6,17.05,-44.06,12.33
2006-09-26 16:00,24.05,300.7,17.15,-20.67,12.30
2006-09-26 17:00,25.81,0.1,17.12,0.06,25.81
2006-09-26 18:00,23.46,48.3,17.18,17.52,15.61
2006-09-26 19:00,44.58,64.5,17.31,40.23,19.21
2006-09-26 20:00,59.83,85.9,17.37,59.68,4.26
2006-09-26 21:00,76.55,100.7,17.34,75.22,-14.20
2006-09-26 22:00,62.47,132.7,17.12,45.92,-42.35
2006-09-26 23:00,47.81,149.6,16.96,24.22,-41.22
2006-09-27 00:00,37.84,181.2,16.77,-0.80,-37.83
2006-09-27 01:00,33.73,223.4,16.77,-23.17,-24.51
2006-09-27 02:00,45.46,270.2,16.71,-45.46,0.13
2006-09-27 03:00,59.25,286.7,16.89,-56.75,17.01
2006-09-27 04:00,65.70,325.7,17.21,-37.01,54.28
2006-09-27 05:00,46.34,347.8,17.37,-9.77,45.30
2006-09-27 06:00,22.29,24.4,17.34,9.21,20.30
2006-09-27 07:00,41.94,57.1,17.37,35.21,22.79
2006-09-27 08:00,57.78,80.6,17.46,57.01,9.39
2006-09-27 09:00,78.31,92.3,17.56,78.25,-3.08
2006-09-27 10:00,67.75,101.7,17.53,66.33,-13.79
2006-09-27 11:00,52.79,139.0,16.77,34.63,-39.85
2006-09-27 12:00,20.82,178.7,16.80,0.46,-20.82
2006-09-27 13:00,17.30,224.1,16.80,-12.04,-12.43
2006-09-27 14:00,32.56,289.9,16.93,-30.62,11.05
2006-09-27 15:00,57.19,301.8,17.31,-48.61,30.14
2006-09-27 16:00,66.29,313.4,17.65,-48.16,45.55
2006-09-27 17:00,53.38,324.0,17.24,-31.41,43.16
2006-09-27 18:00,25.22,348.9,17.21,-4.86,24.75
2006-09-27 19:00,26.40,37.0,17.27,15.90,21.07
2006-09-27 20:00,38.72,59.9,17.27,33.50,19.41
2006-09-27 21:00,60.42,90.5,17.12,60.42,-0.52
2006-09-27 22:00,60.13,103.9,17.62,58.38,-14.40
2006-09-27 23:00,50.45,110.2,18.03,47.35,-17.40
2006-09-28 00:00,32.85,127.4,17.78,26.09,-19.96
2006-09-28 01:00,16.72,237.5,17.59,-14.09,-8.99
2006-09-28 02:00,46.05,280.4,17.65,-45.30,8.28
2006-09-28 03:00,63.65,295.5,17.84,-57.46,27.38
2006-09-28 04:00,75.67,311.6,17.08,-56.54,50.29
2006-09-28 05:00,65.99,328.2,16.99,-34.80,56.07
2006-09-28 06:00,40.48,342.9,17.02,-11.90,38.69
2006-09-28 07:00,28.74,2.6,16.80,1.30,28.71
2006-09-28 08:00,35.20,55.3,16.58,28.95,20.02
2006-09-28 09:00,42.53,107.7,16.93,40.51,-12.95
2006-09-28 10:00,68.93,114.4,16.64,62.77,-28.48
2006-09-28 11:00,60.71,129.2,17.18,47.07,-38.35
2006-09-28 12:00,37.84,149.6,17.91,19.17,-32.62
2006-09-28 13:00,26.69,193.9,17.87,-6.40,-25.91
2006-09-28 14:00,46.05,261.0,17.53,-45.48,-7.19
2006-09-28 15:00,70.98,289.1,16.42,-67.05,23.28
2006-09-28 16:00,90.34,303.6,17.27,-75.28,49.94
2006-09-28 17:00,81.24,321.1,17.31,-50.97,63.27
2006-09-28 18:00,50.15,335.9,17.24,-20.47,45.79
2006-09-28 19:00,26.98,19.1,16.96,8.84,25.50
2006-09-28 20:00,31.09,47.6,16.58,22.96,20.96
2006-09-28 21:00,36.08,88.4,16.42,36.06,1.02
2006-09-28 22:00,45.75,109.5,16.96,43.14,-15.26
2006-09-29 00:00,41.94,151.0,16.93,20.35,-36.67
2006-09-29 01:00,27.86,194.9,16.77,-7.17,-26.92
2006-09-29 02:00,31.97,268.4,17.02,-31.96,-0.89
2006-09-29 03:00,44.87,288.1,16.45,-42.66,13.94
2006-09-29 04:00,62.77,295.8,16.71,-56.50,27.34
2006-09-29 05:00,65.41,313.4,16.89,-47.52,44.95
2006-09-29 06:00,63.94,321.5,17.15,-39.81,50.04
2006-09-29 07:00,48.69,333.4,17.05,-21.76,43.55
2006-09-29 08:00,29.33,359.4,17.08,-0.29,29.33
2006-09-29 09:00,40.77,45.8,16.64,29.25,28.40
2006-09-29 10:00,47.22,66.9,16.33,43.45,18.50
2006-09-29 11:00,40.18,93.3,16.61,40.12,-2.32
2006-09-29 12:00,32.26,134.1,16.86,23.17,-22.45
2006-09-29 13:00,14.37,190.3,17.12,-2.58,-14.14
2006-09-29 14:00,14.96,264.9,17.05,-14.90,-1.33
2006-09-29 15:00,37.25,297.2,16.64,-33.12,17.05
2006-09-29 16:00,57.78,297.2,16.67,-51.38,26.44
2006-09-29 17:00,60.42,300.4,16.74,-52.11,30.57
2006-09-29 18:00,65.11,321.5,17.37,-40.54,50.95
2006-09-29 19:00,49.57,334.2,17.27,-21.61,44.61
2006-09-29 20:00,26.69,353.8,17.18,-2.88,26.53
2006-09-29 21:00,20.24,32.5,17.24,10.87,17.07
2006-09-29 22:00,45.46,73.6,17.12,43.62,12.82
2006-09-29 23:00,65.99,90.5,17.21,65.99,-0.57
2006-09-30 00:00,58.37,111.2,17.18,54.40,-21.14
2006-09-30 01:00,31.97,138.3,17.12,21.26,-23.87
2006-09-30 02:00,16.13,170.7,17.12,2.62,-15.92
2006-09-30 03:00,22.29,262.4,17.08,-22.10,-2.94
2006-09-30 04:00,30.21,279.3,16.99,-29.81,4.88
2006-09-30 05:00,47.22,285.3,16.99,-45.55,12.44
2006-09-30 06:00,50.74,299.3,17.02,-44.23,24.87
2006-09-30 07:00,36.66,307.4,16.99,-29.11,22.28
2006-09-30 08:00,27.28,335.6,16.67,-11.29,24.83
2006-09-30 09:00,17.30,19.5,16.71,5.77,16.32
2006-09-30 10:00,26.40,51.1,16.71,20.55,16.57
2006-09-30 11:00,39.01,68.0,16.99,36.17,14.62
2006-09-30 12:00,41.65,83.8,17.05,41.41,4.49
2006-09-30 13:00,39.30,112.6,17.08,36.27,-15.13
2006-09-30 14:00,27.28,147.5,17.12,14.68,-22.99
2006-09-30 15:00,20.53,201.6,17.18,-7.56,-19.09
2006-09-30 16:00,36.66,257.9,17.15,-35.84,-7.71
2006-09-30 17:00,56.02,275.4,17.18,-55.77,5.31
2006-09-30 18:00,66.58,299.0,16.99,-58.24,32.27
2006-09-30 19:00,59.25,307.1,17.12,-47.27,35.72
2006-09-30 20:00,39.60,341.5,17.34,-12.54,37.56
2006-09-30 21:00,25.52,15.6,17.43,6.86,24.58
2006-09-30 22:00,27.86,60.3,17.40,24.19,13.82
2006-09-30 23:00,46.05,62.4,17.34,40.79,21.36
2006-10-01 00:00,68.93,81.7,17.18,68.20,9.95
2006-10-01 01:00,61.01,91.9,16.86,60.97,-2.02
2006-10-01 02:00,41.94,114.8,17.34,38.09,-17.56
2006-10-01 03:00,30.21,126.4,17.34,24.33,-17.91
2006-10-01 04:00,17.01,205.1,17.24,-7.22,-15.40
2006-10-01 05:00,37.25,272.3,17.12,-37.22,1.48
2006-10-01 06:00,72.45,300.4,17.02,-62.49,36.66
2006-10-01 07:00,69.22,306.4,17.31,-55.73,41.05
2006-10-01 08:00,48.98,320.4,17.43,-31.20,37.76
2006-10-01 09:00,25.22,338.0,17.37,-9.44,23.39
2006-10-01 10:00,15.84,17.4,17.37,4.73,15.12
2006-10-01 11:00,18.48,57.4,17.34,15.57,9.94
2006-10-01 12:00,38.42,77.5,17.37,37.51,8.33
2006-10-01 13:00,55.73,97.2,17.18,55.29,-6.96
2006-10-01 14:00,47.81,112.6,17.08,44.12,-18.41
2006-10-01 15:00,,,,,
2006-10-01 16:00,18.48,218.5,17.08,-11.50,-14.47
2006-10-01 17:00,44.58,261.0,17.12,-44.04,-6.96
2006-10-01 18:00,68.93,284.2,17.34,-66.81,16.94
2006-10-01 19:00,59.83,295.5,17.31,-54.02,25.74
2006-10-01 21:00,44.87,322.2,17.27,-27.51,35.46
2006-10-01 22:00,23.17,336.3,17.21,-9.33,21.21
2006-10-01 23:00,12.91,349.9,17.15,-2.26,12.71
2006-10-02 00:00,14.37,77.1,17.08,14.01,3.20
2006-10-02 01:00,42.24,95.1,16.96,42.07,-3.73
2006-10-02 02:00,53.38,117.6,16.89,47.32,-24.70
2006-10-02 03:00,36.96,127.8,16.74,29.22,-22.63
2006-10-02 04:00,29.33,157.6,16.80,11.15,-27.13
2006-10-02 05:00,25.52,231.8,16.89,-20.06,-15.77
2006-10-02 06:00,39.60,263.1,17.08,-39.31,-4.74
2006-10-02 07:00,51.62,286.0,17.15,-49.63,14.21
2006-10-02 08:00,57.19,305.0,17.21,-46.87,32.78
2006-10-02 09:00,54.85,323.3,17.15,-32.81,43.95
2006-10-02 10:00,27.86,6.1,16.96,2.97,27.71
2006-10-02 11:00,23.17,78.9,16.99,22.74,4.46
2006-10-02 12:00,37.54,86.3,16.96,37.46,2.44
2006-10-02 13:00,65.11,92.3,16.71,65.06,-2.56
2006-10-02 14:00,79.48,115.1,16.71,71.98,-33.72
2006-10-02 15:00,75.08,134.1,16.83,53.93,-52.24
2006-10-02 16:00,63.06,146.7,16.86,34.58,-52.74
2006-10-02 17:00,50.45,170.7,16.89,8.19,-49.78
2006-10-02 18:00,56.02,218.5,16.99,-34.85,-43.86
2006-10-02 19:00,61.30,248.0,16.99,-56.84,-22.95
2006-10-02 20:00,55.73,266.6,16.36,-55.63,-3.26
2006-10-02 21:00,51.62,271.9,16.20,-51.59,1.73
2006-10-02 22:00,33.14,280.7,16.14,-32.57,6.16
2006-10-02 23:00,6.75,276.1,15.54,-6.71,0.72
2006-10-03 00:00,17.30,199.8,15.45,-5.87,-16.28
2006-10-03 01:00,18.48,131.3,15.45,13.89,-12.19
2006-10-03 02:00,38.13,109.8,15.54,35.87,-12.94
2006-10-03 03:00,45.75,107.0,16.17,43.75,-13.39
2006-10-03 04:00,36.08,121.1,16.26,30.90,-18.62
2006-10-03 05:00,24.93,163.6,16.20,7.03,-23.92
2006-10-03 06:00,18.48,206.2,16.17,-8.15,-16.58
2006-10-03 07:00,37.25,267.3,16.17,-37.21,-1.72
2006-10-03 08:00,43.12,301.5,15.76,-36.78,22.50
2006-10-03 09:00,48.10,326.1,15.57,-26.85,39.91
2006-10-03 10:00,31.68,333.1,15.76,-14.33,28.25
2006-10-03 11:00,13.20,354.5,15.95,-1.26,13.14
2006-10-03 12:00,9.09,138.3,15.98,6.05,-6.79
2006-10-03 13:00,37.25,111.9,16.04,34.55,-13.92
2006-10-03 14:00,55.73,105.3,16.08,53.76,-14.67
2006-10-03 15:00,65.11,118.3,16.01,57.35,-30.84
2006-10-03 16:00,57.19,129.2,16.17,44.34,-36.12
2006-10-03 17:00,42.53,149.9,16.33,21.32,-36.80
2006-10-03 18:00,25.81,171.7,16.42,3.72,-25.54
2006-10-03 19:00,36.08,231.8,16.33,-28.36,-22.29
2006-10-03 20:00,55.43,257.5,15.73,-54.12,-12.00
2006-10-03 21:00,70.10,295.8,15.64,-63.10,30.54
2006-10-03 22:00,59.25,326.8,15.70,-32.47,49.56
2006-10-03 23:00,36.96,340.1,15.64,-12.56,34.76
2006-10-04 00:00,32.56,24.7,15.42,13.63,29.57
2006-10-04 01:00,41.36,57.1,15.38,34.72,22.47
2006-10-04 02:00,62.77,77.5,15.67,61.27,13.60
2006-10-04 03:00,86.52,88.0,16.45,86.47,2.97
2006-10-04 04:00,82.71,93.7,16.74,82.54,-5.28
2006-10-04 05:00,68.05,100.0,16.74,67.01,-11.80
2006-10-04 06:00,52.79,103.9,16.58,51.26,-12.64
2006-10-04 07:00,35.49,130.6,16.52,26.96,-23.08
2006-10-04 08:00,39.60,203.7,16.17,-15.92,-36.25
2006-10-04 09:00,43.70,249.8,16.01,-41.01,-15.11
2006-10-04 10:00,52.21,272.6,15.95,-52.15,2.39
2006-10-04 11:00,47.81,293.7,16.23,-43.77,19.23
2006-10-04 12:00,30.50,308.1,15.82,-23.99,18.84
2006-10-04 13:00,16.42,321.8,15.26,-10.15,12.92
2006-10-04 14:00,19.06,65.5,15.32,17.35,7.90
2006-10-04 15:00,35.20,89.8,15.73,35.20,0.13
2006-10-04 16:00,64.23,90.8,16.08,64.23,-0.95
2006-10-04 17:00,50.15,98.2,16.58,49.64,-7.18
2006-10-04 18:00,26.69,96.8,16.55,26.50,-3.17
2006-10-04 19:00,8.21,107.0,16.58,7.85,-2.40
2006-10-04 20:00,15.25,308.1,16.64,-12.00,9.42
2006-10-04 21:00,37.54,303.9,16.67,-31.16,20.95
2006-10-04 22:00,85.35,307.1,15.95,-68.09,51.46
2006-10-04 23:00,80.07,339.1,15.54,-28.60,74.79
2006-10-05 00:00,55.43,7.2,15.57,6.91,55.00
2006-10-05 01:00,45.46,43.0,15.64,31.02,33.23
2006-10-05 02:00,62.47,67.3,15.76,57.63,24.12
2006-10-05 03:00,70.10,86.3,16.30,69.95,4.56
2006-10-05 04:00,99.14,85.6,16.45,98.84,7.66
2006-10-05 05:00,98.26,97.2,16.77,97.49,-12.27
2006-10-05 06:00,74.79,99.6,16.52,73.74,-12.52
2006-10-05 07:00,56.31,104.6,16.42,54.51,-14.15
2006-10-05 08:00,24.34,97.2,16.45,24.15,-3.04
2006-10-05 10:00,39.60,295.8,16.36,-35.64,17.25
2006-10-05 11:00,49.57,305.3,16.23,-40.44,28.66
2006-10-05 12:00,38.42,319.7,16.26,-24.83,29.32
2006-10-05 13:00,3.52,219.5,16.17,-2.24,-2.71
2006-10-05 14:00,7.92,152.0,16.04,3.72,-6.99
2006-10-05 15:00,41.94,134.8,16.01,29.76,-29.55
2006-10-05 16:00,43.70,133.0,16.11,31.94,-29.82
2006-10-05 17:00,57.49,141.5,16.14,35.81,-44.97
2006-10-05 18:00,48.10,157.3,16.23,18.57,-44.37
2006-10-05 19:00,31.97,192.5,16.17,-6.90,-31.22
2006-10-05 20:00,31.68,243.1,16.14,-28.25,-14.34
2006-10-05 21:00,71.27,267.3,16.11,-71.20,-3.30
2006-10-05 22:00,109.99,293.4,15.79,-100.97,43.62
2006-10-05 23:00,105.88,315.2,15.29,-74.65,75.08
2006-10-06 00:00,84.18,332.0,16.01,-39.46,74.35
2006-10-06 01:00,44.58,357.3,16.14,-2.09,44.53
2006-10-06 02:00,21.12,31.4,16.14,11.01,18.02
2006-10-06 03:00,38.42,71.9,16.14,36.51,11.96
2006-10-06 04:00,66.87,100.0,16.26,65.86,-11.60
2006-10-06 05:00,107.64,103.5,16.33,104.67,-25.13
2006-10-06 06:00,99.14,125.3,15.76,80.91,-57.29
2006-10-06 07:00,80.95,136.2,15.89,56.03,-58.43
2006-10-06 08:00,59.54,156.2,15.95,23.99,-54.49
2006-10-06 09:00,60.42,214.6,15.95,-34.32,-49.73
2006-10-06 10:00,75.08,261.0,15.70,-74.16,-11.72
2006-10-06 11:00,89.75,280.0,15.32,-88.38,15.59
2006-10-06 12:00,72.15,299.7,15.13,-62.68,35.74
2006-10-06 13:00,47.81,319.4,15.73,-31.12,36.29
2006-10-06 14:00,17.60,342.6,15.67,-5.28,16.79
2006-10-06 15:00,16.42,117.9,15.73,14.51,-7.69
2006-10-06 16:00,29.33,114.1,15.82,26.78,-11.95
2006-10-06 17:00,59.83,121.1,15.67,51.24,-30.89
2006-10-06 18:00,78.60,117.9,15.64,69.46,-36.80
2006-10-06 19:00,64.53,130.2,15.64,49.27,-41.67
2006-10-06 20:00,47.81,139.7,15.95,30.91,-36.47
2006-10-06 21:00,22.88,190.7,15.89,-4.25,-22.48
2006-10-06 22:00,36.96,250.5,15.76,-34.83,-12.35
2006-10-06 23:00,65.99,280.7,15.10,-64.84,12.26
2006-10-07 00:00,84.47,335.6,15.48,-34.95,76.90
2006-10-07 01:00,51.03,337.7,15.51,-19.39,47.21
2006-10-07 02:00,45.75,348.9,15.32,-8.82,44.90
2006-10-07 03:00,33.44,80.3,15.42,32.96,5.64
2006-10-07 04:00,32.26,162.2,15.51,9.85,-30.72
2006-10-07 05:00,70.39,111.9,15.54,65.29,-26.30
2006-10-07 06:00,87.99,115.1,15.45,79.68,-37.33
2006-10-07 07:00,76.84,124.2,15.48,63.52,-43.24
2006-10-07 08:00,49.86,142.5,15.70,30.33,-39.57
2006-10-07 09:00,17.89,172.1,15.70,2.47,-17.72
2006-10-07 10:00,22.00,241.3,15.57,-19.30,-10.55
2006-10-07 11:00,64.82,279.3,15.26,-63.97,10.48
2006-10-07 12:00,108.23,307.8,15.29,-85.54,66.31
2006-10-07 13:00,87.70,337.3,15.10,-33.82,80.91
2006-10-07 14:00,70.39,352.0,14.41,-9.74,69.71
2006-10-07 15:00,56.90,13.1,14.76,12.94,55.41
2006-10-07 16:00,21.70,49.0,14.79,16.38,14.24
2006-10-07 17:00,35.78,104.6,14.76,34.63,-8.99
2006-10-07 18:00,78.31,112.3,15.48,72.46,-29.71
2006-10-07 19:00,92.39,123.2,15.51,77.32,-50.58
2006-10-07 20:00,75.96,124.6,15.51,62.53,-43.13